GOMX4-B (43196 NORAD) Tracking and Keplerian Element Data

This shows tracking and keplerian element data for the satellite.

Feedback or suggestion? Click here.




ElementValue
Catalog43196
NameGOMX4-B
Epoch Orbit2520
Epoch Day198.87955386
Epoch Year2018
RAAN327.183
Inclination97.3501
Eccentricity0.0020372
Argument of Perigee52.0207
Mean Anonmoly308.2865
Mean Motion15.23676066
Decay Rate3.56E-06
L11 43196U 18015E 18198.87955386 .00000356 00000-0 17718-4 0 9998
L22 43196 97.3501 327.1830 0020372 52.0207 308.2865 15.23676066 25207

Live tracking and technical data element details for GOMX4-B (NORAD 43196). GOMX4-B can be tracked NOW for your location showing map with azimuth and elevation plus other details from your city location.

Track the satellite on the map from your city or location and see movement details for azimuth, elevation, latitude, longitude, range, height, and movement on the map or in text.







IsCatalogInMostPopularTable: catalog: 43196, numindb: 65
Update: records affected: 1



GetName: 43196 GOMX4-B

Hit Count: updated at: Fri, 20 Jul 2018 20:34:25 GMT